Regional Weather Roundup
Issued by NWS

Home | Current Version | Previous Version | Text Only | Print | Product List | Glossary Off
Versions: 1 2 3 4 5 6 7 8 9 10 11 12 13 14 15 16 17 18 19 20 21 22 23 24 25 26 27 28 29 30 31 32 33 34 35 36 37 38 39 40 41 42 43 44 45 46 47 48 49 50

000
ASUS43 KFSD 181502
RWRSD

WEATHER ROUNDUP FOR SOUTH DAKOTA
NATIONAL WEATHER SERVICE SIOUX FALLS SD
900 AM CST THU DEC 18 2014

NOTE: "FAIR" INDICATES FEW OR NO CLOUDS BELOW 12,000 FEET WITH NO
SIGNIFICANT WEATHER AND/OR OBSTRUCTIONS TO VISIBILITY.


SDZ001>005-009-010-012>017-181600-
NORTHWEST AND NORTH CENTRAL SOUTH DAKOTA

CITY           SKY/WX    TMP DP  RH WIND       PRES   REMARKS
BUFFALO          N/A     22  19  89 S6        29.89S WCI  14
FAITH            N/A     23  17  78 S10       30.02S WCI  12
MOBRIDGE       CLOUDY    21  18  88 SE14      30.06F WCI   8
$$

SDZ012>016-024>037-041>051-057-063-072>074-181600-
SOUTHWEST AND SOUTH CENTRAL SOUTH DAKOTA

CITY           SKY/WX    TMP DP  RH WIND       PRES   REMARKS
RAPID CTY ARPT FOG       20  19  96 SE6       30.00S VSB<1/4 WCI  12
PIERRE         CLOUDY    22  20  92 SE6       30.10S WCI  14
CUSTER         CLEAR     20  15  81 NW3       29.94R
ELLSWORTH AFB  MOCLDY    19  18  93 SW2       29.98  FOG
PHILIP         CLOUDY    24  21  88 CALM      30.07S
PINE RIDGE     PTCLDY     6   1  80 CALM      30.03R
WINNER         CLOUDY    25  21  85 SE10      30.11S WCI  15
$$

SDZ004>011-016>023-039-040-181600-
NORTHEAST SOUTH DAKOTA

CITY           SKY/WX    TMP DP  RH WIND       PRES   REMARKS
ABERDEEN       CLOUDY    20  14  77 S8        30.19S WCI  10
WATERTOWN      CLOUDY    17  12  80 S10       30.17F WCI   5
SISSETON         N/A     14  11  87 S9        30.22S WCI   2
$$

SDZ017-020-022-023-036>040-048>070-181600-
SOUTHEAST SOUTH DAKOTA

CITY           SKY/WX    TMP DP  RH WIND       PRES   REMARKS
SIOUX FALLS    CLOUDY    20  17  88 SE7       30.22S WCI  11
HURON          CLOUDY    20  17  88 SE10      30.19S WCI   9
MITCHELL       CLOUDY    22  18  85 SE8       30.22R FOG     WCI  12
YANKTON        MOCLDY    23  19  86 E5        30.23S WCI  17
$$

ABBREVIATIONS USED IN REMARKS
   TC - TEMPERATURE IN CELSIUS
  WCI - WIND CHILL INDEX
   HX - HEAT INDEX
  VSB - VISIBILITY




USA.gov is the U.S. government's official web portal to all federal, state and local government web resources and services.